カタログに戻る

IUS DEB

LostHEO
NORAD 43362·DEBRIS·🇺🇸 United States

打ち上げ Jul 23, 1999 から Cape Canaveral Space Force Station

Loading…

次のパス (今後24時間)

TLE

古いSource: Space-Track

元期: Jun 22, 2026, 06:57 UTC

1 43362U 99040K   26173.28980411 -.00000607  00000-0 -62156-2 0  9999
2 43362  28.0274 190.4649 3645127 122.9407 277.4903  7.08847228268575

AllMySatでIUS DEBをリアルタイム追跡

Download on the App Store